When you browse on this site, cookies collect data to enhance your experience and personalize the content and advertising you see.
Visit our Privacy Policy to learn more. By continuing to use the site, you agree to this use of cookies and data.
  • In Lithuania
  • List of Countries
  • For 7 days
  • Water Temperature
  • Satellite Maps
  • Weather Map
  • Weather Widgets
  • user-avatar
    Login

    Hourly Weather Opytnyy

    Today, 22 January, Tuesday

    Time Temperature Precipitation Wind Pressure Humidity
    00:00 -6°C° 0.2 mm 6 mps 752 mmHg 87%
    01:00 -6°C° 0 mm 5 mps 752 mmHg 87%
    02:00 -7°C° 0 mm 5 mps 753 mmHg 86%
    03:00 -6°C° 0 mm 3 mps 753 mmHg 86%
    04:00 -8°C° 0 mm 3 mps 754 mmHg 86%
    05:00 -10°C° 0 mm 4 mps 754 mmHg 86%
    06:00 -11°C° 0 mm 4 mps 755 mmHg 86%
    07:00 -10°C° 0 mm 3 mps 755 mmHg 86%
    08:00 -12°C° 0 mm 3 mps 756 mmHg 85%
    09:00 -12°C° 0 mm 3 mps 757 mmHg 84%
    10:00 -10°C° 0 mm 3 mps 757 mmHg 82%
    11:00 -8°C° 0 mm 2 mps 757 mmHg 80%
    12:00 -7°C° 0 mm 2 mps 758 mmHg 78%
    13:00 -7°C° 0 mm 2 mps 758 mmHg 77%
    14:00 -7°C° 0 mm 2 mps 758 mmHg 77%
    15:00 -4°C° 0 mm 1 mps 758 mmHg 78%
    16:00 -6°C° 0 mm 1 mps 758 mmHg 79%
    17:00 -7°C° 0 mm 1 mps 758 mmHg 80%
    18:00 -9°C° 0 mm 2 mps 758 mmHg 81%
    19:00 -9°C° 0 mm 2 mps 758 mmHg 81%
    20:00 -10°C° 0 mm 2 mps 758 mmHg 81%
    21:00 -10°C° 0 mm 2 mps 758 mmHg 81%
    22:00 -10°C° 0 mm 2 mps 758 mmHg 81%
    23:00 -12°C° 0 mm 2 mps 758 mmHg 81%

    Tomorrow, 23 January, Wednesday

    Time Temperature Precipitation Wind Pressure Humidity
    00:00 -12°C° 0 mm 2 mps 758 mmHg 81%
    01:00 -13°C° 0 mm 3 mps 758 mmHg 82%
    02:00 -13°C° 0 mm 3 mps 758 mmHg 82%
    03:00 -13°C° 0 mm 3 mps 758 mmHg 83%
    04:00 -13°C° 0 mm 3 mps 757 mmHg 83%
    05:00 -14°C° 0 mm 4 mps 757 mmHg 83%
    06:00 -14°C° 0 mm 4 mps 757 mmHg 84%
    07:00 -12°C° 0 mm 4 mps 757 mmHg 84%
    08:00 -12°C° 0 mm 4 mps 757 mmHg 84%
    09:00 -12°C° 0 mm 5 mps 757 mmHg 84%
    10:00 -11°C° 0 mm 5 mps 757 mmHg 82%
    11:00 -10°C° 0 mm 5 mps 757 mmHg 80%
    12:00 -7°C° 0 mm 5 mps 757 mmHg 78%
    13:00 -8°C° 0 mm 6 mps 756 mmHg 76%
    14:00 -6°C° 0 mm 6 mps 756 mmHg 75%
    15:00 -5°C° 0 mm 6 mps 755 mmHg 74%
    16:00 -5°C° 0 mm 6 mps 755 mmHg 73%
    17:00 -5°C° 0 mm 6 mps 755 mmHg 72%
    18:00 -5°C° 0 mm 6 mps 755 mmHg 71%
    19:00 -5°C° 0 mm 6 mps 754 mmHg 71%
    20:00 -5°C° 0 mm 6 mps 754 mmHg 71%
    21:00 -5°C° 0 mm 6 mps 754 mmHg 72%
    22:00 -5°C° 0 mm 6 mps 753 mmHg 74%
    23:00 -5°C° 0 mm 6 mps 753 mmHg 77%

    Day after tomorrow, 24 January, Thursday

    Time Temperature Precipitation Wind Pressure Humidity
    00:00 -5°C° 0 mm 6 mps 753 mmHg 80%
    01:00 -4°C° 0 mm 6 mps 752 mmHg 81%
    02:00 -4°C° 0 mm 6 mps 752 mmHg 83%
    03:00 -4°C° 0 mm 6 mps 752 mmHg 85%
    04:00 -4°C° 0 mm 5 mps 752 mmHg 85%
    05:00 -4°C° 0 mm 5 mps 752 mmHg 86%
    06:00 -4°C° 0 mm 5 mps 751 mmHg 86%
    07:00 -2°C° 0 mm 5 mps 751 mmHg 87%
    08:00 -2°C° 0 mm 5 mps 752 mmHg 87%
    09:00 -2°C° 0 mm 5 mps 752 mmHg 87%
    10:00 -2°C° 0 mm 4 mps 751 mmHg 88%
    11:00 -1°C° 0 mm 4 mps 751 mmHg 88%
    12:00 -1°C° 0 mm 4 mps 751 mmHg 89%
    13:00 0°C° 0 mm 4 mps 751 mmHg 89%
    14:00 +1°C° 0 mm 3 mps 750 mmHg 90%
    15:00 +1°C° 0 mm 3 mps 750 mmHg 90%
    16:00 +1°C° 0 mm 3 mps 750 mmHg 90%
    17:00 0°C° 0 mm 3 mps 750 mmHg 90%
    18:00 -1°C° 0 mm 3 mps 750 mmHg 89%
    19:00 -1°C° 0 mm 3 mps 750 mmHg 90%
    20:00 -1°C° 0 mm 3 mps 749 mmHg 91%
    21:00 -1°C° 0 mm 3 mps 749 mmHg 92%
    22:00 -1°C° 0 mm 3 mps 749 mmHg 92%
    23:00 -1°C° 0 mm 3 mps 749 mmHg 92%

    25 January, Friday

    Time Temperature Precipitation Wind Pressure Humidity
    00:00 -1°C° 0 mm 3 mps 749 mmHg 93%
    01:00 -1°C° 0 mm 3 mps 749 mmHg 93%
    02:00 -1°C° 0 mm 3 mps 749 mmHg 94%
    03:00 -1°C° 0 mm 3 mps 749 mmHg 94%
    04:00 -1°C° 0 mm 3 mps 749 mmHg 95%
    05:00 -1°C° 0 mm 3 mps 749 mmHg 95%
    06:00 -1°C° 0 mm 3 mps 749 mmHg 96%
    07:00 -1°C° 0 mm 3 mps 749 mmHg 96%
    08:00 -2°C° 0 mm 4 mps 749 mmHg 95%
    09:00 -1°C° 0 mm 4 mps 750 mmHg 95%
    10:00 -1°C° 0 mm 4 mps 750 mmHg 95%
    11:00 -1°C° 0 mm 4 mps 750 mmHg 95%
    12:00 0°C° 0 mm 4 mps 750 mmHg 96%
    13:00 0°C° 0 mm 4 mps 750 mmHg 96%
    14:00 0°C° 0 mm 4 mps 750 mmHg 96%
    15:00 +1°C° 0 mm 3 mps 750 mmHg 97%
    16:00 0°C° 0 mm 3 mps 751 mmHg 96%
    17:00 0°C° 0 mm 3 mps 751 mmHg 96%
    18:00 0°C° 0 mm 3 mps 751 mmHg 96%
    19:00 0°C° 0 mm 3 mps 751 mmHg 95%
    20:00 0°C° 0 mm 3 mps 751 mmHg 95%
    21:00 0°C° 0 mm 3 mps 751 mmHg 95%
    22:00 -1°C° 0.1 mm 4 mps 751 mmHg 95%
    23:00 -1°C° 0.1 mm 4 mps 751 mmHg 95%

    26 January, Saturday

    Time Temperature Precipitation Wind Pressure Humidity
    00:00 -1°C° 0.1 mm 4 mps 751 mmHg 95%
    01:00 -1°C° 0 mm 4 mps 751 mmHg 95%
    02:00 -1°C° 0 mm 4 mps 751 mmHg 95%
    03:00 -1°C° 0 mm 4 mps 750 mmHg 94%
    04:00 -1°C° 0 mm 4 mps 750 mmHg 95%
    05:00 -1°C° 0 mm 4 mps 750 mmHg 96%
    06:00 -1°C° 0 mm 4 mps 750 mmHg 96%
    07:00 -1°C° 0 mm 4 mps 750 mmHg 97%
    08:00 -1°C° 0 mm 4 mps 750 mmHg 97%
    09:00 -2°C° 0 mm 4 mps 750 mmHg 97%
    10:00 -1°C° 0 mm 4 mps 750 mmHg 96%
    11:00 -1°C° 0 mm 4 mps 750 mmHg 96%
    12:00 0°C° 0 mm 4 mps 750 mmHg 95%
    13:00 0°C° 0 mm 4 mps 749 mmHg 94%
    14:00 0°C° 0 mm 4 mps 749 mmHg 94%
    15:00 0°C° 0 mm 4 mps 749 mmHg 94%
    16:00 0°C° 0 mm 4 mps 749 mmHg 94%
    17:00 +1°C° 0 mm 3 mps 749 mmHg 94%
    18:00 0°C° 0 mm 3 mps 749 mmHg 94%
    19:00 0°C° 0.1 mm 3 mps 749 mmHg 94%
    20:00 -1°C° 0.1 mm 4 mps 748 mmHg 94%
    21:00 -1°C° 0.1 mm 4 mps 748 mmHg 94%
    22:00 -2°C° 0 mm 4 mps 748 mmHg 94%
    23:00 -2°C° 0 mm 4 mps 748 mmHg 94%

    27 January, Sunday

    Time Temperature Precipitation Wind Pressure Humidity
    00:00 -3°C° 0 mm 4 mps 748 mmHg 94%
    01:00 -3°C° 0.1 mm 4 mps 748 mmHg 93%
    02:00 -4°C° 0.1 mm 5 mps 748 mmHg 93%
    03:00 -4°C° 0.1 mm 5 mps 748 mmHg 93%
    04:00 -4°C° 0.2 mm 5 mps 747 mmHg 93%
    05:00 -3°C° 0.2 mm 4 mps 747 mmHg 93%
    06:00 -3°C° 0.2 mm 4 mps 747 mmHg 93%
    07:00 -3°C° 0.4 mm 4 mps 747 mmHg 93%
    08:00 -4°C° 0.4 mm 5 mps 748 mmHg 93%
    09:00 -4°C° 0.4 mm 5 mps 748 mmHg 93%
    10:00 -4°C° 0.8 mm 5 mps 748 mmHg 93%
    11:00 -4°C° 0.8 mm 5 mps 748 mmHg 94%
    12:00 -4°C° 0.8 mm 5 mps 748 mmHg 94%
    13:00 -4°C° 1.5 mm 5 mps 747 mmHg 94%
    14:00 -4°C° 1.5 mm 5 mps 747 mmHg 95%
    15:00 -4°C° 1.5 mm 5 mps 747 mmHg 95%
    16:00 -5°C° 1.1 mm 6 mps 747 mmHg 95%
    17:00 -8°C° 1.1 mm 7 mps 748 mmHg 95%
    18:00 -9°C° 1.1 mm 7 mps 748 mmHg 95%
    19:00 -9°C° 1.3 mm 7 mps 748 mmHg 94%
    20:00 -11°C° 1.3 mm 7 mps 748 mmHg 94%
    21:00 -12°C° 1.3 mm 7 mps 749 mmHg 93%
    22:00 -12°C° 0.3 mm 7 mps 749 mmHg 92%
    23:00 -13°C° 0.3 mm 7 mps 750 mmHg 91%
    Show more